Weather History for Aurora, OR

Change the Weather History Date:

Wednesday, January 16, 2013

  Actual Average Record
Temperature  
Mean Temperature 34 °F -  
Max Temperature 35 °F - 57 °F (2011)
Min Temperature 32 °F - 25 °F (2007)
Degree Days  
Heating Degree Days 31    
Month to date heating degree days 456  
Since 1 July heating degree days 2115  
Cooling Degree Days 0    
Month to date cooling degree days 0  
Year to date cooling degree days 0  
Moisture  
Dew Point 32 °F    
Average Humidity 95    
Maximum Humidity 100    
Minimum Humidity 89    
Precipitation  
Precipitation 0.00 in - 0.95 in (1953)
Month to date precipitation 0.54  
Year to date precipitation 0.54  
Sea Level Pressure  
Sea Level Pressure 30.61 in    
Wind  
Wind Speed 2 mph (NE)    
Max Wind Speed 8 mph    
Max Gust Speed 9 mph    
Visibility 5 miles    
Events      
T = Trace of Precipitation, MM = Missing Value Source: NWS Daily Summary

Daily Weather History Graph

Daily Weather History Graph

Search for Another Location

Airport:

Trip Planner

Search our weather history database for the weather conditions in past years. The results will help you decide how hot, cold, wet, or windy it might be!

Date:

Astronomy

Jan. 16, 2013 Rise Set
Actual Time 7:45 AM PST 4:56 PM PST
Civil Twilight 7:12 AM PST 5:29 PM PST
Nautical Twilight 6:36 AM PST 6:05 PM PST
Astronomical Twilight 6:01 AM PST 6:41 PM PST
Moon 10:06 AM PST (1/16) 11:13 PM PST (1/16)
Length of Visible Light 10h 16m
Length of Day
9h 11m
Waxing Crescent, 29% of the Moon is Illuminated
Jan 16
Waxing Crescent
Jan 18
First Quarter
Jan 26
Full
Feb 3
Last Quarter
Feb 9
New

Hourly Weather History & Observations

Time (PST) Temp. Windchill Dew Point Humidity Pressure Visibility Wind Dir Wind Speed Gust Speed Precip Events Conditions
12:53 AM 34.0 °F 31.0 °F 32.0 °F 92% 30.67 in 9.0 mi ENE 3.5 mph - N/A   Overcast
1:53 AM 34.0 °F - 32.0 °F 92% 30.68 in 7.0 mi Calm Calm - N/A   Overcast
2:53 AM 33.1 °F 30.0 °F 32.0 °F 96% 30.68 in 7.0 mi North 3.5 mph - N/A   Overcast
4:53 AM 33.1 °F - 32.0 °F 96% 30.66 in 6.0 mi Calm Calm - N/A   Overcast
5:53 AM 33.1 °F - 32.0 °F 96% 30.65 in 5.0 mi Calm Calm - N/A   Overcast
6:16 AM 33.8 °F - 32.0 °F 93% 30.64 in 5.0 mi Calm Calm - N/A   Overcast
6:53 AM 32.0 °F 27.5 °F 30.9 °F 96% 30.65 in 4.0 mi NNE 4.6 mph - N/A   Overcast
7:53 AM 32.0 °F - 32.0 °F 100% 30.66 in 4.0 mi Calm Calm - N/A   Overcast
8:19 AM 32.0 °F - 32.0 °F 100% 30.65 in 2.5 mi Calm Calm - N/A   Overcast
8:34 AM 32.0 °F 28.7 °F 32.0 °F 100% 30.65 in 3.0 mi ENE 3.5 mph - N/A   Overcast
8:42 AM 32.0 °F 28.7 °F 32.0 °F 100% 30.65 in 2.5 mi ENE 3.5 mph - N/A   Overcast
8:53 AM 32.0 °F 28.7 °F 32.0 °F 100% 30.66 in 3.0 mi ENE 3.5 mph - N/A   Overcast
9:15 AM 33.8 °F - 32.0 °F 93% 30.65 in 2.5 mi Calm Calm - N/A   Overcast
9:53 AM 33.1 °F - 32.0 °F 96% 30.65 in 2.5 mi Calm Calm - N/A   Overcast
10:21 AM 33.8 °F 30.8 °F 32.0 °F 93% 30.64 in 3.0 mi East 3.5 mph - N/A   Overcast
10:53 AM 34.0 °F - 32.0 °F 92% 30.63 in 3.0 mi Calm Calm - N/A   Overcast
11:53 AM 34.0 °F - 32.0 °F 92% 30.61 in 3.0 mi Calm Calm - N/A   Overcast
12:53 PM 34.0 °F 31.0 °F 32.0 °F 92% 30.59 in 4.0 mi ENE 3.5 mph - N/A   Overcast
1:53 PM 34.0 °F - 32.0 °F 92% 30.58 in 5.0 mi Calm Calm - N/A   Overcast
2:53 PM 35.1 °F 31.0 °F 33.1 °F 92% 30.58 in 5.0 mi North 4.6 mph - N/A   Overcast
3:53 PM 35.1 °F 31.0 °F 33.1 °F 92% 30.57 in 4.0 mi NNE 4.6 mph - N/A   Overcast
4:53 PM 35.1 °F - 33.1 °F 92% 30.56 in 3.0 mi Calm Calm - N/A   Overcast
5:53 PM 35.1 °F - 33.1 °F 92% 30.54 in 4.0 mi Calm Calm - N/A   Overcast
6:53 PM 34.0 °F - 33.1 °F 96% 30.54 in 5.0 mi Calm Calm - N/A   Overcast
7:53 PM 34.0 °F 29.8 °F 33.1 °F 96% 30.55 in 4.0 mi North 4.6 mph - N/A   Overcast
8:53 PM 34.0 °F 29.8 °F 33.1 °F 96% 30.54 in 3.0 mi North 4.6 mph - N/A   Overcast
9:53 PM 34.0 °F 31.0 °F 33.1 °F 96% 30.53 in 8.0 mi Variable 3.5 mph - N/A   Overcast
10:53 PM 35.1 °F 30.1 °F 32.0 °F 89% 30.53 in 10.0 mi NE 5.8 mph - N/A   Overcast
11:53 PM 35.1 °F 31.0 °F 32.0 °F 89% 30.52 in 10.0 mi NNE 4.6 mph - N/A   Overcast